| time (UTC) | temp F | wind direction | speed MPH | gust MPH | rain 1hr in | rain 24hr in | rain mn in | humidity % | barometer mb |
| 20260505021711 | 66 | 162 | 0.0 | 1.0 | 0.00 | 0.00 | 0.00 | 54 | 1010.0 |
| 20260505021434 | 66 | 162 | 0.0 | 0.0 | 0.00 | 0.00 | 0.00 | 54 | 1010.0 |
| 20260505020702 | 66 | 162 | 0.0 | 0.0 | 0.00 | 0.00 | 0.00 | 54 | 1010.0 |
| 20260505020151 | 66 | 162 | 0.0 | 0.0 | 0.00 | 0.00 | 0.00 | 54 | 1010.0 |
| 20260505015638 | 66 | 162 | 0.0 | 0.0 | 0.00 | 0.00 | 0.00 | 55 | 1010.0 |
| 20260505015118 | 66 | 162 | 0.0 | 0.0 | 0.00 | 0.00 | 0.00 | 56 | 1010.1 |
| 20260505014605 | 66 | 162 | 0.0 | 0.0 | 0.00 | 0.00 | 0.00 | 55 | 1010.0 |
| 20260505014055 | 66 | 162 | 0.0 | 0.0 | 0.00 | 0.00 | 0.00 | 56 | 1009.9 |
| 20260505013757 | 66 | 162 | 0.0 | 0.0 | 0.00 | 0.00 | 0.00 | 55 | 1009.8 |
| 20260505013246 | 67 | 162 | 0.0 | 0.0 | 0.00 | 0.00 | 0.00 | 54 | 1009.7 |
| 20260505012510 | 67 | 162 | 0.0 | 0.0 | 0.00 | 0.00 | 0.00 | 54 | 1009.7 |
| 20260505011950 | 67 | 162 | 0.0 | 0.0 | 0.00 | 0.00 | 0.00 | 51 | 1009.6 |
| 20260505011438 | 68 | 162 | 0.0 | 0.0 | 0.00 | 0.00 | 0.00 | 50 | 1009.7 |
| 20260505010926 | 68 | 162 | 0.0 | 0.0 | 0.00 | 0.00 | 0.00 | 50 | 1009.7 |
| 20260505010406 | 68 | 162 | 0.0 | 0.0 | 0.00 | 0.00 | 0.00 | 49 | 1009.6 |
| 20260505005900 | 68 | 162 | 0.0 | 0.0 | 0.00 | 0.00 | 0.00 | 49 | 1009.6 |
| 20260505005355 | 69 | 162 | 0.0 | 0.0 | 0.00 | 0.00 | 0.00 | 48 | 1009.5 |
| 20260505004835 | 69 | 162 | 0.0 | 0.0 | 0.00 | 0.00 | 0.00 | 49 | 1009.5 |
| 20260505004334 | 69 | 162 | 0.0 | 0.0 | 0.00 | 0.00 | 0.00 | 48 | 1009.5 |
| 20260505003828 | 70 | 162 | 0.0 | 0.0 | 0.00 | 0.00 | 0.00 | 48 | 1009.5 |
| 20260505003533 | 70 | 162 | 0.0 | 0.0 | 0.00 | 0.00 | 0.00 | 47 | 1009.3 |
| 20260505002804 | 70 | 162 | 0.0 | 0.0 | 0.00 | 0.00 | 0.00 | 46 | 1009.4 |
| 20260505002258 | 70 | 162 | 0.0 | 0.0 | 0.00 | 0.00 | 0.00 | 46 | 1009.3 |
| 20260505001746 | 71 | 162 | 0.0 | 0.0 | 0.00 | 0.00 | 0.00 | 45 | 1009.4 |
| 20260505001235 | 71 | 162 | 0.0 | 0.0 | 0.00 | 0.00 | 0.00 | 45 | 1009.4 |
| 20260505000954 | 71 | 162 | 0.0 | 0.0 | 0.00 | 0.00 | 0.00 | 45 | 1009.4 |
| 20260505000442 | 71 | 162 | 0.0 | 0.0 | 0.00 | 0.00 | 0.00 | 45 | 1009.3 |
| 20260504235711 | 71 | 162 | 0.0 | 0.0 | 0.00 | 0.00 | 0.00 | 44 | 1009.2 |
| 20260504235426 | 71 | 162 | 0.0 | 1.0 | 0.00 | 0.00 | 0.00 | 44 | 1009.2 |
| 20260504234652 | 72 | 162 | 0.0 | 1.0 | 0.00 | 0.00 | 0.00 | 43 | 1009.2 |
| 20260504234145 | 72 | 162 | 0.0 | 1.0 | 0.00 | 0.00 | 0.00 | 43 | 1009.2 |
| 20260504233641 | 72 | 162 | 0.0 | 1.0 | 0.00 | 0.00 | 0.00 | 43 | 1009.2 |
| 20260504233126 | 72 | 162 | 0.0 | 1.0 | 0.00 | 0.00 | 0.00 | 42 | 1009.2 |
| 20260504232621 | 72 | 142 | 0.0 | 1.0 | 0.00 | 0.00 | 0.00 | 41 | 1009.2 |
| 20260504232118 | 73 | 142 | 0.0 | 2.0 | 0.00 | 0.00 | 0.00 | 41 | 1009.1 |
| 20260504231617 | 73 | 142 | 1.0 | 4.0 | 0.00 | 0.00 | 0.00 | 40 | 1009.1 |
| 20260504231115 | 73 | 142 | 1.0 | 4.0 | 0.00 | 0.00 | 0.00 | 40 | 1009.1 |
| 20260504231109 | 73 | 154 | 1.0 | 3.0 | 0.00 | 0.00 | 0.00 | 40 | 1009.1 |
| 20260504230115 | 73 | 141 | 1.0 | 3.0 | 0.00 | 0.00 | 0.00 | 39 | 1009.2 |
| 20260504225611 | 73 | 140 | 1.0 | 3.0 | 0.00 | 0.00 | 0.00 | 39 | 1009.2 |
| 20260504225114 | 73 | 121 | 0.0 | 3.0 | 0.00 | 0.00 | 0.00 | 39 | 1009.2 |
| 20260504224612 | 73 | 146 | 1.0 | 5.0 | 0.00 | 0.00 | 0.00 | 40 | 1009.2 |
| 20260504224328 | 74 | 146 | 1.0 | 5.0 | 0.00 | 0.00 | 0.00 | 39 | 1009.2 |
| 20260504223607 | 74 | 126 | 1.0 | 5.0 | 0.00 | 0.00 | 0.00 | 40 | 1009.1 |
| 20260504223107 | 74 | 148 | 1.0 | 3.0 | 0.00 | 0.00 | 0.00 | 39 | 1008.9 |
| 20260504222608 | 74 | 154 | 1.0 | 3.0 | 0.00 | 0.00 | 0.00 | 38 | 1009.1 |
| 20260504222107 | 74 | 111 | 1.0 | 3.0 | 0.00 | 0.00 | 0.00 | 38 | 1009.0 |
| 20260504221608 | 74 | 155 | 1.0 | 3.0 | 0.00 | 0.00 | 0.00 | 38 | 1009.0 |
| 20260504221102 | 74 | 123 | 0.0 | 2.0 | 0.00 | 0.00 | 0.00 | 38 | 1008.9 |
| 20260504220603 | 74 | 124 | 0.0 | 2.0 | 0.00 | 0.00 | 0.00 | 38 | 1009.0 |
| 20260504220059 | 74 | 127 | 0.0 | 2.0 | 0.00 | 0.00 | 0.00 | 38 | 1009.0 |
| 20260504215820 | 74 | 127 | 0.0 | 2.0 | 0.00 | 0.00 | 0.00 | 37 | 1009.0 |
| 20260504215056 | 75 | 127 | 1.0 | 3.0 | 0.00 | 0.00 | 0.00 | 36 | 1008.9 |
| 20260504214558 | 75 | 126 | 1.0 | 3.0 | 0.00 | 0.00 | 0.00 | 38 | 1009.0 |
| 20260504214542 | 75 | 133 | 0.0 | 2.0 | 0.00 | 0.00 | 0.00 | 40 | 1009.0 |
| 20260504213555 | 75 | 125 | 1.0 | 2.0 | 0.00 | 0.00 | 0.00 | 37 | 1009.0 |
| 20260504213052 | 75 | 119 | 1.0 | 2.0 | 0.00 | 0.00 | 0.00 | 37 | 1009.0 |
| 20260504212814 | 75 | 149 | 0.0 | 2.0 | 0.00 | 0.00 | 0.00 | 37 | 1009.1 |
| 20260504212048 | 75 | 148 | 1.0 | 3.0 | 0.00 | 0.00 | 0.00 | 37 | 1009.0 |
| 20260504211815 | 75 | 146 | 1.0 | 3.0 | 0.00 | 0.00 | 0.00 | 36 | 1009.1 |
| 20260504211043 | 75 | 136 | 0.0 | 2.0 | 0.00 | 0.00 | 0.00 | 37 | 1009.1 |
| 20260504210542 | 75 | 111 | 1.0 | 3.0 | 0.00 | 0.00 | 0.00 | 36 | 1009.2 |
| 20260504210532 | 75 | 142 | 1.0 | 3.0 | 0.00 | 0.00 | 0.00 | 37 | 1009.2 |
| 20260504205535 | 75 | 135 | 1.0 | 5.0 | 0.00 | 0.00 | 0.00 | 36 | 1009.1 |
| 20260504205029 | 76 | 112 | 1.0 | 5.0 | 0.00 | 0.00 | 0.00 | 36 | 1009.1 |
| 20260504204530 | 76 | 121 | 0.0 | 2.0 | 0.00 | 0.00 | 0.00 | 37 | 1009.1 |
| 20260504204032 | 76 | 343 | 0.0 | 1.0 | 0.00 | 0.00 | 0.00 | 36 | 1009.2 |
| 20260504203531 | 76 | 340 | 0.0 | 3.0 | 0.00 | 0.00 | 0.00 | 36 | 1009.2 |
| 20260504203028 | 76 | 339 | 1.0 | 3.0 | 0.00 | 0.00 | 0.00 | 38 | 1009.3 |
| 20260504202528 | 76 | 103 | 1.0 | 3.0 | 0.00 | 0.00 | 0.00 | 37 | 1009.3 |
| 20260504202026 | 76 | 153 | 0.0 | 5.0 | 0.00 | 0.00 | 0.00 | 35 | 1009.5 |
| 20260504201524 | 76 | 153 | 1.0 | 5.0 | 0.00 | 0.00 | 0.00 | 36 | 1009.6 |
| 20260504201025 | 76 | 9 | 1.0 | 2.0 | 0.00 | 0.00 | 0.00 | 38 | 1009.6 |
| 20260504200523 | 76 | 286 | 1.0 | 2.0 | 0.00 | 0.00 | 0.00 | 38 | 1009.5 |
| 20260504200022 | 76 | 107 | 0.0 | 2.0 | 0.00 | 0.00 | 0.00 | 38 | 1009.6 |
| 20260504195520 | 75 | 15 | 0.0 | 2.0 | 0.00 | 0.00 | 0.00 | 37 | 1009.6 |
| 20260504195018 | 75 | 24 | 1.0 | 3.0 | 0.00 | 0.00 | 0.00 | 36 | 1009.7 |
| 20260504194516 | 75 | 24 | 1.0 | 5.0 | 0.00 | 0.00 | 0.00 | 37 | 1009.9 |
| 20260504194014 | 75 | 226 | 1.0 | 5.0 | 0.00 | 0.00 | 0.00 | 36 | 1009.9 |
| 20260504193508 | 75 | 86 | 0.0 | 5.0 | 0.00 | 0.00 | 0.00 | 37 | 1010.1 |
| 20260504192957 | 75 | 61 | 1.0 | 3.0 | 0.00 | 0.00 | 0.00 | 38 | 1010.1 |
| 20260504192448 | 75 | 61 | 1.0 | 3.0 | 0.00 | 0.00 | 0.00 | 37 | 1010.2 |
| 20260504192201 | 75 | 22 | 1.0 | 4.0 | 0.00 | 0.00 | 0.00 | 38 | 1010.4 |
| 20260504191430 | 74 | 342 | 1.0 | 4.0 | 0.00 | 0.00 | 0.00 | 38 | 1010.6 |
| 20260504190933 | 74 | 309 | 1.0 | 4.0 | 0.00 | 0.00 | 0.00 | 38 | 1010.5 |
| 20260504190431 | 74 | 46 | 1.0 | 4.0 | 0.00 | 0.00 | 0.00 | 40 | 1010.6 |
| 20260504185934 | 74 | 313 | 1.0 | 4.0 | 0.00 | 0.00 | 0.00 | 40 | 1010.7 |
| 20260504185431 | 74 | 44 | 1.0 | 4.0 | 0.00 | 0.00 | 0.00 | 39 | 1010.8 |
| 20260504184932 | 74 | 319 | 1.0 | 5.0 | 0.00 | 0.00 | 0.00 | 38 | 1010.9 |
| 20260504184431 | 73 | 84 | 1.0 | 5.0 | 0.00 | 0.00 | 0.00 | 39 | 1011.0 |
| 20260504183932 | 73 | 44 | 1.0 | 4.0 | 0.00 | 0.00 | 0.00 | 37 | 1011.1 |
| 20260504183425 | 73 | 9 | 1.0 | 4.0 | 0.00 | 0.00 | 0.00 | 38 | 1011.1 |
| 20260504182917 | 73 | 15 | 1.0 | 5.0 | 0.00 | 0.00 | 0.00 | 39 | 1011.2 |
| 20260504182409 | 73 | 105 | 1.0 | 5.0 | 0.00 | 0.00 | 0.00 | 42 | 1011.3 |
| 20260504181907 | 73 | 75 | 1.0 | 3.0 | 0.00 | 0.00 | 0.00 | 40 | 1011.2 |
| 20260504181407 | 73 | 59 | 1.0 | 4.0 | 0.00 | 0.00 | 0.00 | 39 | 1011.3 |
| 20260504180906 | 72 | 338 | 1.0 | 6.0 | 0.00 | 0.00 | 0.00 | 39 | 1011.4 |
| 20260504180406 | 72 | 343 | 1.0 | 6.0 | 0.00 | 0.00 | 0.00 | 38 | 1011.5 |
| 20260504175904 | 72 | 290 | 1.0 | 3.0 | 0.00 | 0.00 | 0.00 | 39 | 1011.6 |
| 20260504175402 | 72 | 70 | 0.0 | 5.0 | 0.00 | 0.00 | 0.00 | 41 | 1011.5 |
| 20260504174903 | 71 | 98 | 1.0 | 5.0 | 0.00 | 0.00 | 0.00 | 40 | 1011.6 |
| 20260504174403 | 71 | 326 | 1.0 | 4.0 | 0.00 | 0.00 | 0.00 | 39 | 1011.6 |
| 20260504174335 | 71 | 345 | 1.0 | 3.0 | 0.00 | 0.00 | 0.00 | 38 | 1011.7 |
| 20260504173340 | 71 | 343 | 1.0 | 2.0 | 0.00 | 0.00 | 0.00 | 38 | 1011.8 |
| 20260504172829 | 71 | 146 | 1.0 | 4.0 | 0.00 | 0.00 | 0.00 | 40 | 1011.9 |
| 20260504172307 | 71 | 355 | 1.0 | 4.0 | 0.00 | 0.00 | 0.00 | 38 | 1011.8 |
| 20260504171756 | 70 | 266 | 1.0 | 5.0 | 0.00 | 0.00 | 0.00 | 39 | 1012.1 |
| 20260504171244 | 70 | 327 | 1.0 | 5.0 | 0.00 | 0.00 | 0.00 | 38 | 1012.1 |
| 20260504170730 | 70 | 63 | 1.0 | 3.0 | 0.00 | 0.00 | 0.00 | 40 | 1012.1 |
| 20260504170228 | 70 | 62 | 1.0 | 4.0 | 0.00 | 0.00 | 0.00 | 38 | 1012.2 |
| 20260504160226 | 67 | 298 | 0.0 | 3.0 | 0.00 | 0.00 | 0.00 | 42 | 1012.8 |
| 20260504160213 | 67 | 246 | 1.0 | 4.0 | 0.00 | 0.00 | 0.00 | 40 | 1012.9 |
| 20260504150936 | 65 | 346 | 1.0 | 3.0 | 0.00 | 0.00 | 0.00 | 41 | 1013.4 |
| 20260504150218 | 64 | 336 | 0.0 | 3.0 | 0.00 | 0.00 | 0.00 | 43 | 1013.4 |
| 20260504141141 | 61 | 340 | 0.0 | 2.0 | 0.00 | 0.00 | 0.00 | 48 | 1013.4 |
| 20260504140858 | 61 | 5 | 0.0 | 2.0 | 0.00 | 0.00 | 0.00 | 53 | 1013.5 |
| 20260504140120 | 60 | 5 | 0.0 | 2.0 | 0.00 | 0.00 | 0.00 | 55 | 1013.6 |
| 20260504130454 | 55 | 330 | 0.0 | 2.0 | 0.00 | 0.00 | 0.00 | 62 | 1013.9 |
| 20260504120310 | 51 | 330 | 0.0 | 0.0 | 0.00 | 0.00 | 0.00 | 71 | 1014.3 |
| 20260504120248 | 50 | 330 | 0.0 | 1.0 | 0.00 | 0.00 | 0.00 | 71 | 1014.4 |
| 20260504110628 | 47 | 254 | 0.0 | 0.0 | 0.00 | 0.00 | 0.00 | 79 | 1014.4 |
| 20260504110123 | 47 | 254 | 0.0 | 0.0 | 0.00 | 0.00 | 0.00 | 79 | 1014.4 |
| 20260504100447 | 49 | 223 | 0.0 | 0.0 | 0.00 | 0.00 | 0.00 | 77 | 1014.3 |
| 20260504100430 | 49 | 223 | 0.0 | 0.0 | 0.00 | 0.00 | 0.00 | 77 | 1014.3 |
| 20260504081924 | 49 | 223 | 0.0 | 0.0 | 0.00 | 0.00 | 0.00 | 76 | 1014.7 |
| 20260504081422 | 49 | 223 | 0.0 | 0.0 | 0.00 | 0.00 | 0.00 | 74 | 1014.7 |
| 20260504081143 | 49 | 223 | 0.0 | 0.0 | 0.00 | 0.00 | 0.00 | 75 | 1014.7 |
| 20260504080423 | 49 | 223 | 0.0 | 0.0 | 0.00 | 0.00 | 0.00 | 75 | 1014.7 |
| 20260504080148 | 49 | 223 | 0.0 | 0.0 | 0.00 | 0.00 | 0.00 | 72 | 1014.8 |
| 20260504060232 | 46 | 223 | 0.0 | 0.0 | 0.00 | 0.00 | 0.00 | 77 | 1015.1 |
| 20260504045556 | 46 | 223 | 0.0 | 0.0 | 0.00 | 0.00 | 0.00 | 66 | 1015.0 |
| 20260504045051 | 46 | 223 | 0.0 | 0.0 | 0.00 | 0.00 | 0.00 | 67 | 1015.0 |
| 20260504044758 | 46 | 223 | 0.0 | 0.0 | 0.00 | 0.00 | 0.00 | 66 | 1015.0 |
| 20260504044030 | 46 | 223 | 0.0 | 0.0 | 0.00 | 0.00 | 0.00 | 68 | 1014.9 |
| 20260504043744 | 46 | 223 | 0.0 | 0.0 | 0.00 | 0.00 | 0.00 | 67 | 1015.0 |
| 20260504043011 | 46 | 223 | 0.0 | 0.0 | 0.00 | 0.00 | 0.00 | 67 | 1015.0 |
| 20260504042503 | 46 | 223 | 0.0 | 0.0 | 0.00 | 0.00 | 0.00 | 67 | 1015.0 |
| 20260504041959 | 46 | 223 | 0.0 | 0.0 | 0.00 | 0.00 | 0.00 | 66 | 1015.0 |
| 20260504041445 | 46 | 223 | 0.0 | 1.0 | 0.00 | 0.00 | 0.00 | 67 | 1015.0 |
| 20260504040933 | 46 | 223 | 0.0 | 1.0 | 0.00 | 0.00 | 0.00 | 68 | 1015.0 |
| 20260504040432 | 45 | 223 | 0.0 | 1.0 | 0.00 | 0.00 | 0.00 | 69 | 1015.0 |
| 20260504035918 | 45 | 223 | 0.0 | 0.0 | 0.00 | 0.00 | 0.00 | 70 | 1015.0 |
| 20260504035416 | 45 | 223 | 0.0 | 0.0 | 0.00 | 0.00 | 0.00 | 72 | 1015.0 |
| 20260504034916 | 45 | 223 | 0.0 | 0.0 | 0.00 | 0.00 | 0.00 | 73 | 1015.0 |
| 20260504034417 | 45 | 223 | 0.0 | 0.0 | 0.00 | 0.00 | 0.00 | 71 | 1014.9 |
| 20260504033916 | 45 | 223 | 0.0 | 0.0 | 0.00 | 0.00 | 0.00 | 71 | 1014.9 |
| 20260504033413 | 45 | 223 | 0.0 | 0.0 | 0.00 | 0.00 | 0.00 | 72 | 1014.8 |
| 20260504032911 | 46 | 223 | 0.0 | 0.0 | 0.00 | 0.00 | 0.00 | 73 | 1014.8 |
| 20260504032409 | 46 | 223 | 0.0 | 0.0 | 0.00 | 0.00 | 0.00 | 73 | 1014.7 |
| 20260504031906 | 46 | 223 | 0.0 | 0.0 | 0.00 | 0.00 | 0.00 | 73 | 1014.7 |
| 20260504031405 | 46 | 223 | 0.0 | 0.0 | 0.00 | 0.00 | 0.00 | 73 | 1014.6 |
| 20260504030903 | 46 | 223 | 0.0 | 0.0 | 0.00 | 0.00 | 0.00 | 72 | 1014.6 |
| 20260504030401 | 46 | 223 | 0.0 | 0.0 | 0.00 | 0.00 | 0.00 | 71 | 1014.6 |
| 20260504025901 | 47 | 223 | 0.0 | 0.0 | 0.00 | 0.00 | 0.00 | 70 | 1014.5 |
| 20260504025400 | 47 | 223 | 0.0 | 0.0 | 0.00 | 0.00 | 0.00 | 70 | 1014.4 |
| 20260504024858 | 47 | 223 | 0.0 | 0.0 | 0.00 | 0.00 | 0.00 | 70 | 1014.4 |
| 20260504024357 | 47 | 223 | 0.0 | 0.0 | 0.00 | 0.00 | 0.00 | 68 | 1014.5 |
| 20260504024115 | 47 | 223 | 0.0 | 0.0 | 0.00 | 0.00 | 0.00 | 68 | 1014.5 |
| 20260504023357 | 48 | 223 | 0.0 | 0.0 | 0.00 | 0.00 | 0.00 | 68 | 1014.5 |
| 20260504022857 | 48 | 223 | 0.0 | 0.0 | 0.00 | 0.00 | 0.00 | 67 | 1014.5 |
| 20260504022356 | 48 | 223 | 0.0 | 0.0 | 0.00 | 0.00 | 0.00 | 67 | 1014.5 |